User: anonymous   Login
Location: Davayat
(45.9471°N, 3.1105°E)
Time: 17:19:29
(UTC+00:00)
Language:

NOAA 16 DEB - Orbit

View from above orbital plane
View from above orbital plane
View from above satellite
View from above satellite

Ground track
Ground track

The orbit data is extracted from the following two-line orbital elements,

1 41370U 00055JP  21172.88287438  .00001384  00000-0  47636-3 0  9991
2 41370  98.9328 325.2166 0085688 284.8929  74.2778 14.35641658290669
Epoch (UTC): 21 June 2021 21:11:20
Eccentricity: 0.0085688
inclination: 98.9328°
perigee height: 711 km
apogee height: 834 km
right ascension of ascending node: 325.2166°
argument of perigee: 284.8929°
revolutions per day: 14.35641658
mean anomaly at epoch: 74.2778°
orbit number at epoch: 29066

The dashed part of the orbit path shows where the satellite is in the earth's shadow,  

DLR